Weather History for San Angelo, TX

Change the Weather History Date:

Thursday, June 13, 2013

  Actual Average Record
Temperature  
Mean Temperature 85 °F 80 °F  
Max Temperature 96 °F 92 °F 109 °F (1942)
Min Temperature 73 °F 69 °F 53 °F (1909)
Degree Days  
Heating Degree Days 0 0  
Month to date heating degree days 0 0  
Since 1 June heating degree days 0 0  
Since 1 July heating degree days 1919 2316  
Cooling Degree Days 20 15  
Month to date cooling degree days 224 185  
Year to date cooling degree days 820 645  
Since 1 June cooling degree days 224 185  
Growing Degree Days 34 (Base 50)    
Moisture  
Dew Point 67 °F    
Average Humidity 57    
Maximum Humidity 82    
Minimum Humidity 31    
Precipitation  
Precipitation T in 0.10 in 2.38 in (1928)
Month to date precipitation 0.59 1.35  
Year to date precipitation 6.97 9.37  
Sea Level Pressure  
Sea Level Pressure 29.97 in    
Wind  
Wind Speed 8 mph (SSE)    
Max Wind Speed 26 mph    
Max Gust Speed 33 mph    
Visibility 10 miles    
Events Rain , Thunderstorm    
T = Trace of Precipitation, MM = Missing Value Source: NWS Daily Summary

Daily Weather History Graph

Daily Weather History Graph

Search for Another Location

Airport:

Trip Planner

Search our weather history database for the weather conditions in past years. The results will help you decide how hot, cold, wet, or windy it might be!

Date:

Astronomy

Jun. 13, 2013 Rise Set
Actual Time 6:37 AM CDT 8:47 PM CDT
Civil Twilight 6:09 AM CDT 9:15 PM CDT
Nautical Twilight 5:35 AM CDT 9:49 PM CDT
Astronomical Twilight 4:58 AM CDT 10:26 PM CDT
Moon 11:01 AM CDT (6/13) No Moon Set
Length of Visible Light 15h 06m
Length of Day
14h 10m
Waxing Crescent, 22% of the Moon is Illuminated
Jun 13
Waxing Crescent
Jun 16
First Quarter
Jun 23
Full
Jun 29
Last Quarter
Jul 8
New

Hourly Weather History & Observations

Time (CDT) Temp. Heat Index Dew Point Humidity Pressure Visibility Wind Dir Wind Speed Gust Speed Precip Events Conditions
12:51 AM 80.1 °F 82.1 °F 66.0 °F 62% 29.95 in 10.0 mi SSE 13.8 mph 24.2 mph N/A   Clear
1:51 AM 78.1 °F - 66.9 °F 68% 29.95 in 10.0 mi South 10.4 mph - N/A   Clear
2:51 AM 77.0 °F - 66.9 °F 71% 29.96 in 10.0 mi South 5.8 mph - N/A   Clear
3:51 AM 75.0 °F - 66.9 °F 76% 29.96 in 10.0 mi Calm Calm - N/A   Clear
4:51 AM 73.9 °F - 66.9 °F 79% 29.97 in 10.0 mi Calm Calm - N/A   Scattered Clouds
5:00 AM 73.4 °F - 66.2 °F 78% 30.04 in 10.0 mi Calm Calm - N/A   Mostly Cloudy
5:51 AM 75.0 °F - 68.0 °F 79% 29.98 in 10.0 mi SSE 3.5 mph - N/A   Scattered Clouds
6:07 AM 75.2 °F - 69.8 °F 83% 30.06 in 10.0 mi South 3.5 mph - N/A   Mostly Cloudy
6:51 AM 75.0 °F - 69.1 °F 82% 29.99 in 10.0 mi East 4.6 mph - N/A   Overcast
7:19 AM 75.2 °F - 69.8 °F 83% 30.07 in 10.0 mi NE 5.8 mph - N/A   Scattered Clouds
7:51 AM 75.9 °F - 69.1 °F 79% 30.00 in 10.0 mi ESE 4.6 mph - N/A   Mostly Cloudy
8:11 AM 77.0 °F - 69.8 °F 78% 30.08 in 10.0 mi SE 5.8 mph - N/A   Scattered Clouds
8:41 AM 78.8 °F - 69.8 °F 74% 30.08 in 10.0 mi South 11.5 mph - N/A   Mostly Cloudy
8:51 AM 79.0 °F - 69.1 °F 72% 30.01 in 10.0 mi South 9.2 mph - N/A   Scattered Clouds
9:51 AM 82.0 °F 84.9 °F 68.0 °F 62% 30.01 in 10.0 mi SSE 10.4 mph - N/A   Clear
10:51 AM 84.9 °F 87.6 °F 66.9 °F 55% 30.01 in 10.0 mi Variable 6.9 mph - N/A   Partly Cloudy
11:51 AM 86.0 °F 88.8 °F 66.9 °F 53% 30.00 in 10.0 mi Variable 4.6 mph - N/A   Mostly Cloudy
12:51 PM 90.0 °F 91.7 °F 64.9 °F 43% 29.98 in 10.0 mi South 11.5 mph - N/A   Mostly Cloudy
1:51 PM 91.9 °F 93.3 °F 64.0 °F 39% 29.96 in 10.0 mi SSE 8.1 mph 19.6 mph N/A   Partly Cloudy
2:51 PM 91.9 °F 92.5 °F 62.1 °F 37% 29.93 in 10.0 mi SSE 12.7 mph 19.6 mph N/A   Partly Cloudy
3:51 PM 93.9 °F 94.0 °F 61.0 °F 33% 29.90 in 10.0 mi SE 13.8 mph 19.6 mph N/A   Scattered Clouds
4:51 PM 95.0 °F 95.2 °F 61.0 °F 32% 29.87 in 10.0 mi SSE 12.7 mph - N/A   Partly Cloudy
5:51 PM 95.0 °F 95.2 °F 61.0 °F 32% 29.86 in 10.0 mi SSE 12.7 mph 20.7 mph N/A   Mostly Cloudy
6:28 PM 84.2 °F 86.6 °F 66.2 °F 55% 29.95 in 7.0 mi SSE 16.1 mph 27.6 mph 0.00 in Rain , Thunderstorm Rain
6:51 PM 81.0 °F 83.3 °F 66.9 °F 62% 29.90 in 10.0 mi ESE 12.7 mph 23.0 mph 0.00 in Thunderstorm Mostly Cloudy
7:48 PM 78.8 °F - 64.4 °F 61% 29.95 in 10.0 mi South 8.1 mph - 0.00 in Rain Light Rain
7:51 PM 78.1 °F - 66.0 °F 66% 29.89 in 10.0 mi South 6.9 mph - 0.00 in Rain Light Rain
8:51 PM 77.0 °F - 69.1 °F 76% 29.92 in 10.0 mi ESE 3.5 mph - 0.00 in Rain Light Rain
9:51 PM 75.9 °F - 70.0 °F 82% 29.94 in 10.0 mi SE 3.5 mph - 0.00 in   Clear
10:51 PM 79.0 °F - 66.0 °F 64% 29.94 in 10.0 mi South 13.8 mph 21.9 mph N/A   Clear
11:51 PM 78.1 °F - 66.0 °F 66% 29.93 in 10.0 mi South 6.9 mph - N/A   Clear